Location: Squirrel Cove
(50.1074°N, 124.9139°W)
Time: 03:58:16
(UTC-07:00)

QB50P2 - Visible Passes

Search period start: 22 May 2022 00:00
Search period end: 01 June 2022 00:00
Orbit: 589 x 607 km, 97.9° (Epoch: 21 May)

Date Brightness Start Highest point End Pass type
(mag) Time Alt. Az. Time Alt. Az. Time Alt. Az.
22 May ? 02:07:30 10° NNE 02:11:15 31° E 02:12:57 23° SE visible
22 May ? 03:43:12 10° N 03:46:54 31° WNW 03:49:40 15° WSW visible
23 May ? 02:17:58 10° NNE 02:21:55 39° E 02:23:44 25° SSE visible
23 May ? 03:54:00 10° N 03:57:25 25° WNW 04:00:27 12° WSW visible
24 May ? 02:28:28 10° NNE 02:32:34 49° E 02:34:30 27° SSE visible
24 May ? 04:04:49 10° NNW 04:07:56 21° WNW 04:11:02 10° WSW visible
25 May ? 02:39:01 10° NNE 02:43:11 64° ESE 02:45:15 28° S visible
25 May ? 04:15:42 10° NNW 04:18:25 17° WNW 04:21:07 10° W visible
26 May ? 02:49:34 10° NNE 02:53:46 81° ESE 02:55:59 27° S visible
26 May ? 04:26:41 10° NNW 04:28:52 14° WNW 04:31:03 10° W visible
27 May ? 01:26:23 10° ENE 01:28:06 12° E 01:29:50 10° ESE visible
27 May ? 03:00:09 10° NNE 03:04:21 79° WNW 03:06:43 25° SSW visible
27 May ? 04:37:54 10° NW 04:39:18 11° NW 04:40:42 10° WNW visible
28 May ? 01:36:17 10° NE 01:38:48 15° E 01:40:43 12° ESE visible
28 May ? 03:10:45 10° N 03:14:53 62° WNW 03:17:26 22° SSW visible
29 May ? 01:46:25 10° NE 01:49:28 19° E 01:51:26 14° SE visible
29 May ? 03:21:22 10° N 03:25:25 49° WNW 03:28:09 19° SW visible
30 May ? 01:56:40 10° NE 02:00:06 24° E 02:02:08 17° SE visible
30 May ? 03:32:00 10° N 03:35:55 39° WNW 03:38:51 16° SW visible
31 May ? 02:07:00 10° NNE 02:10:43 30° E 02:12:49 20° SE visible
31 May ? 03:42:40 10° N 03:46:23 31° WNW 03:49:32 13° SW visible
